Regional Weather Roundup
Issued by NWS

Home | Current Version | Previous Version | Graphics & Text | Print | Product List | Glossary On
Versions: 1 2 3 4 5 6 7 8 9 10 11 12 13 14 15 16 17 18 19 20 21 22 23 24 25 26 27 28 29 30 31 32 33 34 35 36 37 38 39 40 41 42 43 44 45 46 47 48 49 50
000
ASUS43 KIND 190259
RWRIN

WEATHER ROUNDUP FOR INDIANA
NATIONAL WEATHER SERVICE INDIANAPOLIS IN
1000 PM EST SAT FEB 18 2017

NOTE: "FAIR" INDICATES FEW OR NO CLOUDS BELOW 12,000 FEET WITH NO
SIGNIFICANT WEATHER AND/OR OBSTRUCTIONS TO VISIBILITY.

* - STATION DOES NOT REPORT WEATHER SUCH AS PRECIPITATION OR FOG.

+ - STATION NOT QUALITY CONTROLLED BY THE NATIONAL WEATHER SERVICE.
    USE DATA WITH CAUTION...ESPECIALLY DEWPOINT AND RELATIVE
    HUMIDITY OBSERVATIONS.

INZ001>003-010>013-019-020-190400-
NORTHWEST INDIANA

CITY           SKY/WX    TMP DP  RH WIND       PRES   REMARKS
GARY /AIRPORT/ CLEAR     37  34  87 CALM      29.82R
KNOX *+        CLEAR     43  23  45 CALM      29.80R
MICHIGAN CITY+ CLEAR     43  34  70 CALM      29.81R
MONTICELLO +   CLEAR     51  41  69 SW8       29.82R
RENSSELAER +   CLEAR     46  41  81 SW6       29.82R

$$

LMZ046-743>745-190400-
SOUTHERN LAKE MICHIGAN

STATION/POSITION TIME  TEMP    WIND        PRES    WAVE
                       AIR SEA DIR/SP/G            HT
                 (UTC) (F)     (DEG/KT/KT) (MB)    (FT)
BURNS HARBOR     0240   48      80/  6/  7 1009.8R
MICHIGAN CITY    0230   54      50/  6/  7   N/A

$$

INZ004-005-014>016-021>024-190400-
NORTH CENTRAL INDIANA

CITY           SKY/WX    TMP DP  RH WIND       PRES   REMARKS
GOSHEN         CLEAR     45  38  76 CALM      29.81R
SOUTH BEND     CLEAR     40  33  76 CALM      29.81R
WARSAW +       CLEAR     46  39  76 CALM      29.81R

$$

INZ006>009-017-018-025>027-190400-
NORTHEAST INDIANA

CITY           SKY/WX    TMP DP  RH WIND       PRES   REMARKS
ANGOLA *+      CLEAR     41  39  93 CALM      29.79S
FORT WAYNE     PTCLDY    47  39  74 W6        29.81R
KENDALLVILLE + CLEAR     50  40  70 CALM      29.80R

$$

INZ028-029-035-036-043>045-051>053-190400-
WEST CENTRAL INDIANA

CITY           SKY/WX    TMP DP  RH WIND       PRES   REMARKS
LAFAYETTE      CLEAR     51  43  74 SW6       29.84R
TERRE HAUTE    CLEAR     50  45  83 SW8       29.89R

$$

INZ030>032-037>040-046>048-054>057-064-065-190400-
CENTRAL INDIANA

CITY           SKY/WX    TMP DP  RH WIND       PRES   REMARKS
CP ATTERBURY + MOCLDY    50  45  81 SW6       29.89R
COLUMBUS       MOCLDY    52  48  87 SW9       29.89R
FRANKFORT +    CLEAR     49  43  81 SW8       29.86R
GREENWOOD *+   MOCLDY    52  47  85 W7        29.88R
INDIANAPOLIS   CLOUDY    52  47  83 SW15      29.87R
-EAGLE CREEK   MOCLDY    51  45  79 SW6       29.86R
KOKOMO +       CLEAR     49  41  74 SW8       29.84R
MT COMFORT *+  CLEAR     50  45  81 SW10      29.87R
SHELBYVILLE    CLEAR     49  41  74 SW8       29.87R

$$

INZ033-034-041-042-049-050-058-059-190400-
EAST CENTRAL INDIANA

CITY           SKY/WX    TMP DP  RH WIND       PRES   REMARKS
MUNCIE         PTCLDY    52  41  66 SW7       29.84R

$$

INZ060-061-067>069-081>083-085>088-190400-
SOUTHWEST INDIANA

CITY           SKY/WX    TMP DP  RH WIND       PRES   REMARKS
EVANSVILLE     CLOUDY    51  49  92 SW7       29.93R FOG
HUNTINGBURG *+ CLOUDY    49  49 100 S5        29.93R FOG

$$

INZ062-063-066-070>080-084-089>092-190400-
SOUTH CENTRAL AND SOUTHEAST INDIANA

CITY           SKY/WX    TMP DP  RH WIND       PRES   REMARKS
BLOOMINGTON    PTCLDY    50  44  80 SW10      29.89R
MADISON *+     CLOUDY    50  46  87 SW6       29.93R
SEYMOUR +      CLOUDY    52  46  82 SW8       29.90R

$$





USA.gov is the U.S. government's official web portal to all federal, state and local government web resources and services.